Location: �perlecques
(50.8057°N, 2.1521°E)
Time: 16:36:20
(UTC+00:00)

Gurwin Techsat 1B - Visible Passes

Search period start: 20 March 2023 00:00
Search period end: 30 March 2023 00:00
Orbit: 811 x 814 km, 98.9° (Epoch: 20 March)

Date Brightness Start Highest point End Pass type
(mag) Time Alt. Az. Time Alt. Az. Time Alt. Az.
20 Mar 10.6 01:39:35 10° NE 01:43:30 20° E 01:43:37 20° E visible
20 Mar 8.5 03:18:38 10° NNE 03:23:57 71° WNW 03:24:50 59° SW visible
20 Mar 10.4 05:00:04 10° NNW 05:02:58 15° NW 05:05:52 10° W visible
21 Mar 11.1 01:17:38 10° ENE 01:20:09 13° E 01:20:27 13° E visible
21 Mar 8.6 02:55:35 10° NNE 03:00:56 79° ESE 03:01:39 66° S visible
21 Mar 10.0 04:36:24 10° N 04:40:16 21° NW 04:42:51 15° W visible
22 Mar 9.1 02:32:38 10° NNE 02:37:51 52° E 02:38:29 49° SE visible
22 Mar 9.6 04:12:58 10° N 04:17:31 29° WNW 04:19:41 22° W visible
23 Mar 9.8 02:09:49 10° NNE 02:14:41 35° E 02:15:19 34° ESE visible
23 Mar 9.1 03:49:41 10° N 03:54:40 42° WNW 03:56:31 31° WSW visible
24 Mar 10.4 01:47:12 10° NE 01:51:25 23° E 01:52:07 23° ESE visible
24 Mar 8.6 03:26:30 10° N 03:31:46 62° WNW 03:33:20 43° SW visible
24 Mar 10.5 05:08:13 10° NNW 05:10:41 13° NW 05:13:09 10° WNW visible
25 Mar 10.9 01:25:01 10° NE 01:28:06 15° E 01:28:57 15° E visible
25 Mar 8.5 03:03:24 10° NNE 03:08:46 89° ESE 03:10:09 52° SSW visible
25 Mar 10.2 04:44:24 10° N 04:48:01 19° NW 04:51:22 11° W visible
26 Mar 9.0 02:40:25 10° NNE 02:45:42 60° ESE 02:46:58 47° SSE visible
26 Mar 9.7 04:20:55 10° N 04:25:16 26° WNW 04:28:11 17° WSW visible
27 Mar 9.6 02:17:33 10° NNE 02:22:33 40° E 02:23:48 35° SE visible
27 Mar 9.3 03:57:35 10° N 04:02:27 37° WNW 04:05:00 24° WSW visible
28 Mar 10.2 01:54:52 10° NE 01:59:20 26° E 02:00:38 24° ESE visible
28 Mar 8.8 03:34:21 10° N 03:39:33 55° WNW 03:41:50 32° SW visible
29 Mar 10.7 01:32:30 10° NE 01:36:02 18° E 01:37:27 16° ESE visible
29 Mar 8.5 03:11:14 10° NNE 03:16:35 81° WNW 03:18:38 39° SSW visible
29 Mar 10.3 04:52:26 10° NNW 04:55:44 17° NW 04:59:01 10° W visible
